Location: Invercargill
(46.4000°S, 168.3500°E)
Time: 16:14:34
(UTC+13:00)

Cosmos 1933 - Pass Details

Date: 24 January 2019
Orbit: 548 x 564 km, 82.5° (Epoch: 20 February)

Event Time Altitude Azimuth Distance (km) Brightness Sun altitude
Exits shadow 22:58:26 14° 6° (N) 1,646 5.3 -12.8°
Maximum altitude 23:01:57 62° 84° (E) 646 3.4 -13.2°
Drops below altitude 10° 23:06:05 10° 165° (SSE) 1,897 6.5 -13.7°
Sets 23:08:18 0° 167° (SSE) 2,804 7.5 -13.9°
